Regional Weather Roundup
Issued by NWS

Home | Current Version | Previous Version | Text Only | Print | Product List | Glossary On
Versions: 1 2 3 4 5 6 7 8 9 10 11 12 13 14 15 16 17 18 19 20 21 22 23 24 25 26 27 28 29 30 31 32 33 34 35 36 37 38 39 40 41 42 43 44 45 46 47 48 49 50
000
ASUS43 KDTX 241610
RWRMI
MICHIGAN HOURLY REGIONAL WEATHER ROUNDUP
NATIONAL WEATHER SERVICE DETROIT/PONTIAC MI
ISSUED BY NATIONAL WEATHER SERVICE GRAND RAPIDS MI
1200 PM EDT THU MAY 24 2018

NOTE: "FAIR" INDICATES FEW OR NO CLOUDS BELOW 12,000 FEET WITH NO
SIGNIFICANT WEATHER AND/OR OBSTRUCTION TO VISIBILITY.

MIZ047>049-052>055-059>063-066>070-074>076-081>083-241700-
SOUTHEAST LOWER MICHIGAN

CITY           SKY/WX    TMP DP  RH WIND       PRES   REMARKS
ADRIAN         FAIR      76  48  37 VRB6      30.25S
ALMA           FAIR      76  53  44 SW9       30.22F
ANN ARBOR      FAIR      77  50  38 S3        30.23F
BAD AXE        FAIR      77  55  45 W6        30.21S
DETROIT CITY   FAIR      80  52  37 VRB6      30.22S
DETROIT        FAIR      79  50  36 S5        30.23F
FLINT          FAIR      77  51  40 VRB7      30.22F
GROSSE ILE     FAIR      74  56  53 S6        30.23S
HILLSDALE      FAIR      75  45  33 CALM      30.25S
HOWELL         FAIR      78  49  35 SW7       30.23F

CITY           SKY/WX    TMP DP  RH WIND       PRES   REMARKS
JACKSON        FAIR      77  50  38 S5        30.24S
LANSING        FAIR      78  50  37 SW8       30.23F
MASON          FAIR      77  50  37 S5        30.24F
MONROE         FAIR      78  46  31 CALM      30.23S
MT. CLEMENS    SUNNY     78  60  53 SE8       30.21S
PONTIAC        FAIR      78  50  37 SW8       30.22S
PORT HOPE        N/A     61  55  81 E8        30.19F
PORT HURON     FAIR      77  54  44 E6        30.22S
TRI CITIES     FAIR      78  55  44 SW13      30.21F
YPSILANTI      FAIR      81  45  28 SW3       30.24S
$$
MIZ043>046-050>051-056>058-064>065-071>073-077>080-241700-
SOUTHWEST LOWER MICHIGAN

CITY           SKY/WX    TMP DP  RH WIND       PRES   REMARKS
BATTLE CREEK   FAIR      76  54  46 S6        30.24F
BENTON HARBOR  FAIR      78  54  43 SE8       30.20F
BIG RAPIDS     FAIR      76  49  38 SW8       30.20F
COLDWATER      FAIR      75  45  33 CALM      30.24F
HOLLAND        FAIR      77  54  44 SW9       30.21F
GRAND RAPIDS   PTSUNNY   77  53  43 S9        30.21F
KALAMAZOO      FAIR      78  54  43 S8        30.23F
MARSHALL       FAIR      77  52  41 SW3       30.23F
MOUNT PLEASANT FAIR      78  53  42 W6        30.20F
MUSKEGON       FAIR      75  53  46 S9        30.21F
STURGIS        FAIR      76  53  44 S5        30.22F
$$
MIZ016>042-241700-
NORTHERN LOWER MICHIGAN

CITY           SKY/WX    TMP DP  RH WIND       PRES   REMARKS
ALPENA         FAIR      81  52  36 SW5       30.15F
BEAVER ISLAND  FAIR      70  50  49 SW15G23   30.16S
BELLAIRE       FAIR      77  51  40 SW5       30.17S
CADILLAC       FAIR      76  50  41 SW13      30.20S
CHARLEVOIX     FAIR      76  49  38 W14       30.19S
GAYLORD        FAIR      77  52  41 W12       30.18F
MANISTEE       FAIR      77  51  40 SW7       30.17F
OSCODA         FAIR      82  48  30 SW7       30.16F
PELLSTON       FAIR      78  57  48 W9        30.15F
TRAVERSE CITY  PTSUNNY   80  54  40 SW7G18    30.15F
LUDINGTON      FAIR      73  52  47 W5        30.18F
$$
MIZ007>008-015-241700-
EASTERN UPPER MICHIGAN

CITY           SKY/WX    TMP DP  RH WIND       PRES   REMARKS
KINROSS        FAIR      76  57  51 SW8G16    30.12F
MACKINAC ISLAN FAIR      67  48  51 W9G21     30.15F
NEWBERRY       FAIR      75  59  56 S8        30.12S
S. S. MARIE    FAIR      75  58  55 CALM      30.11F
$$
MIZ004>006-011>014-085-241700-
CENTRAL UPPER MICHIGAN

CITY           SKY/WX    TMP DP  RH WIND       PRES   REMARKS
MANISTIQUE     FAIR      57  51  81 S5        30.14S
ESCANABA       PTSUNNY   71  58  63 S10       30.13S
MENOMINEE      FAIR      80  60  50 SW10      30.13F
SAWYER-GWINN   PTSUNNY   77  59  53 SW10      30.12F
$$
MIZ001>003-009>011-084-241700-
WESTERN UPPER MICHIGAN

CITY           SKY/WX    TMP DP  RH WIND       PRES   REMARKS
IRON MOUNTAIN  CLOUDY    67  64  90 NE3       30.14R
HOUGHTON       PTSUNNY   73  60  63 SW10      30.08S
COPPER HARBOR    N/A     65  51  60 CALM      30.06S
IRONWOOD       PTSUNNY   67  63  87 SW5       30.09F
$$

ABBREVIATIONS USED IN REMARKS
   TC - TEMPERATURE IN CELSIUS
  WCI - WIND CHILL INDEX
   HX - HEAT INDEX
  VSB - VISIBILITY





USA.gov is the U.S. government's official web portal to all federal, state and local government web resources and services.